パンスターズ彗星

C/2015 V1 ( PanSTARRS )

English version
Home page
Updated on October 9, 2017

---------------------------------------------------------------------

・ プロフィール

発見日 2015年11月2日
発見光度 20.2等
発見者 Pan-STARRS 1 telescope (Haleakala)

・ 写真集

・ 軌道要素

Epoch 2018 Jan. 2.0 TT = JDT 2458120.5
T 2017 Dec. 17.73349 TT                                 MPCW
q   4.2668265            (2000.0)            P               Q
z  -0.0001235      Peri.  179.63835     +0.95387669     +0.22989872
 +/-0.0000011      Node   197.19411     +0.27376137     -0.40229888
e   1.0005269      Incl.  139.22915     +0.12318268     -0.88617278
From 844 observations 2015 Nov. 2-2017 Feb. 26, mean residual 0".4.

・ 星図

・ 光度変化

        m1 = 6.0 + 5 logΔ + 10.0 log r

---------------------------------------------------------------------

軌道要素はM.P.E.C. 2017-E59に掲載されたものです。
星図はステラナビゲータ Ver.8 (アストロアーツ) で作成したものです。
光度グラフはComet for Windowsで作成したものです。

---------------------------------------------------------------------

Copyright(C) Seiichi Yoshida (comet@aerith.net). All rights reserved.